| time (UTC) | temp C | wind direction | speed KPH | gust KPH | rain 1hr cm | rain 24hr cm | rain mn cm | humidity % | barometer mb |
| 20260509020028 | 29 | 219 | 0.0 | 8.0 | 0.00 | 0.00 | 0.00 | 80 | 1006.0 |
| 20260509014526 | 29 | 221 | 1.6 | 6.4 | 0.00 | 0.00 | 0.00 | 81 | 1005.9 |
| 20260509013019 | 29 | 209 | 3.2 | 11.3 | 0.00 | 0.00 | 0.00 | 80 | 1005.6 |
| 20260509011516 | 29 | 178 | 6.4 | 12.9 | 0.00 | 0.00 | 0.00 | 79 | 1005.5 |
| 20260509010014 | 30 | 192 | 1.6 | 14.5 | 0.00 | 0.00 | 0.00 | 77 | 1005.5 |
| 20260509004551 | 30 | 163 | 11.3 | 17.7 | 0.00 | 0.00 | 0.00 | 75 | 1005.2 |
| 20260509003035 | 30 | 189 | 6.4 | 14.5 | 0.00 | 0.00 | 0.00 | 72 | 1005.0 |
| 20260509001533 | 31 | 202 | 8.0 | 19.3 | 0.00 | 0.00 | 0.00 | 69 | 1004.8 |
| 20260509000041 | 31 | 297 | 6.4 | 14.5 | 0.00 | 0.00 | 0.00 | 68 | 1004.7 |
| 20260508234530 | 31 | 233 | 9.7 | 19.3 | 0.00 | 0.00 | 0.00 | 67 | 1004.4 |
| 20260508233031 | 31 | 360 | 16.1 | 25.7 | 0.00 | 0.00 | 0.00 | 66 | 1004.3 |
| 20260508231600 | 32 | 360 | 12.9 | 22.5 | 0.00 | 0.00 | 0.00 | 64 | 1004.2 |
| 20260508230059 | 32 | 207 | 14.5 | 24.1 | 0.00 | 0.00 | 0.00 | 61 | 1003.9 |
| 20260508224548 | 33 | 177 | 11.3 | 29.0 | 0.00 | 0.00 | 0.00 | 58 | 1004.0 |
| 20260508223028 | 33 | 208 | 12.9 | 24.1 | 0.00 | 0.00 | 0.00 | 56 | 1004.1 |
| 20260508221527 | 33 | 171 | 14.5 | 25.7 | 0.00 | 0.00 | 0.00 | 56 | 1004.1 |
| 20260508220029 | 34 | 191 | 16.1 | 22.5 | 0.00 | 0.00 | 0.00 | 52 | 1004.3 |
| 20260508214527 | 34 | 152 | 16.1 | 25.7 | 0.00 | 0.00 | 0.00 | 51 | 1004.5 |
| 20260508213028 | 34 | 173 | 19.3 | 24.1 | 0.00 | 0.00 | 0.00 | 52 | 1004.6 |
| 20260508211516 | 34 | 153 | 9.7 | 20.9 | 0.00 | 0.00 | 0.00 | 53 | 1004.8 |
| 20260508210011 | 34 | 150 | 14.5 | 25.7 | 0.00 | 0.00 | 0.00 | 53 | 1005.0 |
| 20260508204508 | 34 | 181 | 11.3 | 30.6 | 0.00 | 0.00 | 0.00 | 51 | 1005.3 |
| 20260508203007 | 34 | 360 | 9.7 | 25.7 | 0.00 | 0.00 | 0.00 | 52 | 1005.4 |
| 20260508201501 | 33 | 171 | 12.9 | 25.7 | 0.00 | 0.00 | 0.00 | 54 | 1005.7 |
| 20260508200111 | 34 | 177 | 16.1 | 29.0 | 0.00 | 0.00 | 0.00 | 55 | 1005.8 |
| 20260508194557 | 34 | 127 | 16.1 | 24.1 | 0.00 | 0.00 | 0.00 | 55 | 1006.0 |
| 20260508193104 | 34 | 218 | 12.9 | 29.0 | 0.00 | 0.00 | 0.00 | 57 | 1006.1 |
| 20260508191551 | 34 | 178 | 14.5 | 29.0 | 0.00 | 0.00 | 0.00 | 57 | 1006.2 |
| 20260508190051 | 34 | 186 | 12.9 | 25.7 | 0.00 | 0.00 | 0.00 | 57 | 1006.3 |
| 20260508184549 | 35 | 208 | 14.5 | 24.1 | 0.00 | 0.00 | 0.00 | 58 | 1006.4 |
| 20260508183104 | 34 | 150 | 14.5 | 24.1 | 0.00 | 0.00 | 0.00 | 56 | 1006.6 |
| 20260508181601 | 35 | 196 | 11.3 | 25.7 | 0.00 | 0.00 | 0.00 | 55 | 1006.7 |
| 20260508180045 | 35 | 157 | 14.5 | 30.6 | 0.00 | 0.00 | 0.00 | 56 | 1006.7 |
| 20260508174541 | 35 | 180 | 6.4 | 17.7 | 0.00 | 0.00 | 0.00 | 54 | 1006.8 |
| 20260508173041 | 34 | 360 | 11.3 | 20.9 | 0.00 | 0.00 | 0.00 | 55 | 1006.9 |
| 20260508171542 | 35 | 161 | 14.5 | 24.1 | 0.00 | 0.00 | 0.00 | 55 | 1007.2 |
| 20260508170035 | 35 | 203 | 11.3 | 22.5 | 0.00 | 0.00 | 0.00 | 54 | 1007.3 |
| 20260508164532 | 35 | 175 | 8.0 | 17.7 | 0.00 | 0.00 | 0.00 | 54 | 1007.4 |
| 20260508163029 | 34 | 168 | 9.7 | 17.7 | 0.00 | 0.00 | 0.00 | 55 | 1007.6 |
| 20260508161532 | 33 | 207 | 11.3 | 19.3 | 0.00 | 0.00 | 0.00 | 56 | 1007.7 |
| 20260508160021 | 33 | 209 | 8.0 | 12.9 | 0.00 | 0.00 | 0.00 | 57 | 1007.8 |
| 20260508154518 | 32 | 182 | 4.8 | 14.5 | 0.00 | 0.00 | 0.00 | 58 | 1007.9 |
| 20260508153015 | 32 | 360 | 6.4 | 16.1 | 0.00 | 0.00 | 0.00 | 60 | 1008.2 |
| 20260508151546 | 32 | 136 | 9.7 | 19.3 | 0.00 | 0.00 | 0.00 | 61 | 1008.3 |
| 20260508150049 | 31 | 93 | 6.4 | 12.9 | 0.00 | 0.00 | 0.00 | 63 | 1008.3 |
| 20260508144542 | 31 | 145 | 6.4 | 16.1 | 0.00 | 0.00 | 0.00 | 65 | 1008.4 |
| 20260508143037 | 30 | 154 | 8.0 | 16.1 | 0.00 | 0.00 | 0.00 | 67 | 1008.3 |
| 20260508141527 | 29 | 153 | 4.8 | 12.9 | 0.00 | 0.00 | 0.00 | 72 | 1008.2 |
| 20260508140034 | 28 | 136 | 8.0 | 14.5 | 0.00 | 0.00 | 0.00 | 75 | 1008.2 |
| 20260508134521 | 27 | 97 | 6.4 | 12.9 | 0.00 | 0.00 | 0.00 | 78 | 1008.1 |
| 20260508133020 | 26 | 77 | 3.2 | 9.7 | 0.00 | 0.00 | 0.00 | 80 | 1007.9 |
| 20260508131520 | 25 | 19 | 0.0 | 4.8 | 0.00 | 0.00 | 0.00 | 83 | 1007.7 |
| 20260508130025 | 25 | 11 | 6.4 | 9.7 | 0.00 | 0.00 | 0.00 | 86 | 1007.5 |
| 20260508124518 | 24 | 323 | 0.0 | 0.0 | 0.00 | 0.00 | 0.00 | 87 | 1007.3 |
| 20260508123018 | 24 | 323 | 0.0 | 1.6 | 0.00 | 0.00 | 0.00 | 87 | 1007.0 |
| 20260508121519 | 24 | 323 | 0.0 | 6.4 | 0.00 | 0.00 | 0.00 | 87 | 1006.8 |
| 20260508120019 | 24 | 307 | 0.0 | 1.6 | 0.00 | 0.00 | 0.00 | 88 | 1006.5 |
| 20260508114526 | 24 | 346 | 0.0 | 3.2 | 0.00 | 0.00 | 0.00 | 88 | 1006.4 |
| 20260508113010 | 24 | 55 | 0.0 | 1.6 | 0.00 | 0.00 | 0.00 | 88 | 1006.4 |
| 20260508111612 | 24 | 57 | 0.0 | 6.4 | 0.00 | 0.00 | 0.00 | 87 | 1006.4 |
| 20260508110008 | 24 | 334 | 3.2 | 9.7 | 0.00 | 0.00 | 0.00 | 87 | 1006.3 |
| 20260508104506 | 24 | 302 | 0.0 | 0.0 | 0.00 | 0.00 | 0.00 | 87 | 1006.3 |
| 20260508103002 | 25 | 304 | 0.0 | 6.4 | 0.00 | 0.00 | 0.00 | 86 | 1006.4 |
| 20260508101502 | 25 | 292 | 0.0 | 1.6 | 0.00 | 0.00 | 0.00 | 86 | 1006.4 |
| 20260508100059 | 25 | 292 | 0.0 | 6.4 | 0.00 | 0.00 | 0.00 | 86 | 1006.4 |
| 20260508094558 | 25 | 282 | 0.0 | 3.2 | 0.00 | 0.00 | 0.00 | 86 | 1006.6 |
| 20260508093045 | 25 | 285 | 3.2 | 8.0 | 0.00 | 0.00 | 0.00 | 87 | 1006.8 |
| 20260508091546 | 25 | 322 | 1.6 | 6.4 | 0.00 | 0.00 | 0.00 | 87 | 1006.9 |
| 20260508090046 | 25 | 304 | 1.6 | 8.0 | 0.00 | 0.00 | 0.00 | 87 | 1007.1 |
| 20260508084539 | 25 | 316 | 4.8 | 9.7 | 0.00 | 0.00 | 0.00 | 87 | 1007.2 |
| 20260508083010 | 25 | 271 | 0.0 | 8.0 | 0.00 | 0.00 | 0.00 | 86 | 1007.4 |
| 20260508081507 | 25 | 290 | 0.0 | 6.4 | 0.00 | 0.00 | 0.00 | 87 | 1007.7 |
| 20260508080003 | 25 | 271 | 1.6 | 8.0 | 0.00 | 0.00 | 0.00 | 87 | 1007.9 |
| 20260508074506 | 26 | 289 | 0.0 | 3.2 | 0.00 | 0.00 | 0.00 | 87 | 1008.1 |
| 20260508073108 | 26 | 288 | 0.0 | 6.4 | 0.00 | 0.00 | 0.00 | 87 | 1008.5 |
| 20260508071602 | 26 | 304 | 1.6 | 8.0 | 0.00 | 0.00 | 0.00 | 86 | 1008.7 |
| 20260508070101 | 26 | 311 | 3.2 | 8.0 | 0.00 | 0.00 | 0.00 | 86 | 1009.1 |
| 20260508064605 | 26 | 319 | 0.0 | 0.0 | 0.00 | 0.00 | 0.00 | 86 | 1009.5 |
| 20260508063052 | 26 | 265 | 0.0 | 0.0 | 0.00 | 0.00 | 0.00 | 86 | 1009.8 |
| 20260508061558 | 27 | 265 | 0.0 | 0.0 | 0.00 | 0.00 | 0.00 | 87 | 1010.2 |
| 20260508060049 | 27 | 265 | 0.0 | 0.0 | 0.00 | 0.00 | 0.00 | 87 | 1010.3 |
| 20260508054608 | 27 | 261 | 0.0 | 0.0 | 0.00 | 0.00 | 0.00 | 87 | 1010.3 |
| 20260508053044 | 27 | 261 | 0.0 | 0.0 | 0.00 | 0.00 | 0.00 | 87 | 1010.2 |
| 20260508051545 | 27 | 263 | 0.0 | 0.0 | 0.00 | 0.00 | 0.00 | 86 | 1010.2 |
| 20260508050040 | 27 | 263 | 0.0 | 6.4 | 0.00 | 0.00 | 0.00 | 86 | 1010.0 |
| 20260508044536 | 27 | 281 | 0.0 | 3.2 | 0.00 | 0.00 | 0.00 | 85 | 1009.9 |
| 20260508043043 | 27 | 284 | 0.0 | 1.6 | 0.00 | 0.00 | 0.00 | 85 | 1009.7 |
| 20260508041534 | 27 | 286 | 0.0 | 3.2 | 0.00 | 0.00 | 0.00 | 85 | 1009.6 |
| 20260508040107 | 27 | 204 | 0.0 | 3.2 | 0.00 | 0.00 | 0.00 | 85 | 1009.7 |
| 20260508034558 | 27 | 204 | 0.0 | 1.6 | 0.00 | 0.00 | 0.00 | 85 | 1009.6 |
| 20260508033057 | 27 | 205 | 0.0 | 3.2 | 0.00 | 0.00 | 0.00 | 84 | 1009.4 |
| 20260508031557 | 28 | 240 | 0.0 | 6.4 | 0.00 | 0.00 | 0.00 | 84 | 1009.1 |
| 20260508030054 | 28 | 248 | 1.6 | 4.8 | 0.00 | 0.00 | 0.00 | 83 | 1008.9 |
| 20260508024545 | 28 | 231 | 0.0 | 6.4 | 0.00 | 0.00 | 0.00 | 83 | 1008.9 |
| 20260508023039 | 28 | 208 | 0.0 | 8.0 | 0.00 | 0.00 | 0.00 | 83 | 1008.7 |
| 20260508021536 | 28 | 219 | 0.0 | 3.2 | 0.00 | 0.00 | 0.00 | 83 | 1008.5 |